EW6230 Weather Reports


time (UTC)temp
C
wind
direction
speed
KPH
gust
KPH
rain 1hr
cm
rain 24hr
cm
rain mn
cm
humidity
%
barometer
mb
20260506073048 10 144 0.0 0.0 0.00 0.00 0.00 1 1013.0
20260506071544 10 145 0.0 0.0 0.00 0.00 0.00 1 1012.9
20260506061535 10 100 0.0 0.0 0.00 0.00 0.00 1 1012.6
20260506044530 10 162 0.0 0.0 0.00 0.00 0.00 1 1012.4
20260506043030 10 162 0.0 0.0 0.00 0.00 0.00 1 1012.3
20260506041546 10 162 0.0 0.0 0.00 0.00 0.00 1 1012.0
20260506040029 10 163 0.0 0.0 0.00 0.00 0.00 1 1011.8
20260506034533 10 161 0.0 0.0 0.00 0.00 0.00 1 1011.4
20260506033019 11 161 0.0 0.0 0.00 0.00 0.00 1 1011.3
20260506031515 11 161 0.0 0.0 0.00 0.00 0.00 1 1011.2
20260506030012 11 161 0.0 0.0 0.00 0.00 0.00 1 1011.2
20260506024505 12 161 0.0 0.0 0.00 0.00 0.00 5 1011.3
20260506023002 12 161 0.0 0.0 0.00 0.00 0.00 14 1011.1
20260506021557 12 161 0.0 0.0 0.00 0.00 0.00 22 1011.1
20260506020055 12 161 0.0 0.0 0.00 0.00 0.00 30 1011.2
20260506014548 13 161 0.0 0.0 0.00 0.00 0.00 38 1011.1
20260506013052 13 161 0.0 0.0 0.00 0.00 0.00 45 1011.2
20260506011543 14 238 0.0 1.6 0.00 0.00 0.00 48 1011.2
20260506010036 15 238 0.0 0.0 0.00 0.00 0.00 53 1011.2
20260506004531 15 39 0.0 1.6 0.00 0.00 0.00 56 1011.2
20260506003027 16 344 0.0 1.6 0.00 0.00 0.00 61 1011.2
20260506001522 17 340 0.0 0.0 0.00 0.00 0.00 61 1011.3
20260506000017 17 1 0.0 1.6 0.00 0.00 0.00 62 1011.4
20260505234512 17 27 0.0 8.0 0.00 0.00 0.00 61 1011.5
20260505233011 17 260 0.0 4.8 0.00 0.00 0.00 61 1011.7
20260505231504 17 322 0.0 1.6 0.00 0.00 0.00 62 1011.7
20260505230122 17 149 0.0 1.6 0.00 0.00 0.00 62 1011.8
20260505224556 18 122 0.0 1.6 0.00 0.00 0.00 61 1012.0
20260505223052 18 213 0.0 1.6 0.00 0.00 0.00 62 1012.1
20260505221555 17 312 0.0 4.8 0.00 0.00 0.00 62 1012.3
20260505220052 17 148 0.0 3.2 0.00 0.00 0.00 61 1012.3
20260505214538 17 56 0.0 1.6 0.00 0.00 0.00 62 1012.5
20260505213034 17 63 0.0 9.7 0.00 0.00 0.00 60 1012.5
20260505211531 17 20 0.0 1.6 0.00 0.00 0.00 58 1012.5
20260505210023 16 354 0.0 3.2 0.00 0.00 0.00 55 1012.6
20260505204519 16 13 0.0 1.6 0.00 0.00 0.00 54 1012.6
20260505203015 15 355 0.0 1.6 0.00 0.00 0.00 49 1012.7
20260505201511 15 301 0.0 1.6 0.00 0.00 0.00 42 1012.7
20260505200014 14 229 0.0 4.8 0.00 0.00 0.00 23 1012.7
20260505194502 13 231 0.0 1.6 0.00 0.00 0.00 23 1012.6
20260505193104 13 226 0.0 3.2 0.00 0.00 0.00 14 1012.6
20260505191602 13 203 0.0 0.0 0.00 0.00 0.00 12 1012.7
20260505190048 13 198 0.0 1.6 0.00 0.00 0.00 1 1012.7
20260505184546 12 184 0.0 0.0 0.00 0.00 0.00 1 1012.6
20260505183043 12 64 0.0 0.0 0.00 0.00 0.00 1 1012.6
20260505181543 12 98 0.0 0.0 0.00 0.00 0.00 1 1012.5
20260505180032 12 160 0.0 0.0 0.00 0.00 0.00 1 1012.4
20260505174527 12 160 0.0 0.0 0.00 0.00 0.00 1 1012.3
20260505173022 11 132 0.0 0.0 0.00 0.00 0.00 1 1012.2
20260505171518 11 132 0.0 0.0 0.00 0.00 0.00 1 1012.1
20260505170014 11 194 0.0 0.0 0.00 0.00 0.00 1 1012.0
20260505164509 11 194 0.0 0.0 0.00 0.00 0.00 1 1012.1
20260505163008 11 194 0.0 0.0 0.00 0.00 0.00 1 1012.1
20260505161610 11 194 0.0 0.0 0.00 0.00 0.00 1 1012.0
20260505153047 11 194 0.0 0.0 0.00 0.00 0.00 1 1011.8
20260505151542 10 194 0.0 0.0 0.00 0.00 0.00 1 1011.5
20260505124601 -17 0.0 0.0 0.00 0.00 0.00 1010.1
20260505123056 8 192 0.0 0.0 0.00 0.00 0.00 1 1010.1
20260505121552 9 194 0.0 0.0 0.00 0.00 0.00 1 1009.9
20260505120046 8 194 0.0 0.0 0.00 0.00 0.00 1 1009.7
20260505114541 8 194 0.0 0.0 0.00 0.00 0.00 1 1009.6
20260505113037 8 194 0.0 0.0 0.00 0.00 0.00 1 1009.4
20260505111532 8 194 0.0 0.0 0.00 0.00 0.00 1 1009.2
20260505101514 8 194 0.0 0.0 0.00 0.00 0.00 1 1008.7
20260505100016 8 194 0.0 0.0 0.00 0.00 0.00 1 1008.7
20260505094505 9 194 0.0 0.0 0.00 0.00 0.00 1 1008.7
20260505093102 9 194 0.0 0.0 0.00 0.00 0.00 1 1008.6
20260505091605 9 194 0.0 0.0 0.00 0.00 0.00 1 1008.6
20260505090058 9 194 0.0 0.0 0.00 0.00 0.00 1 1008.5
20260505084554 9 194 0.0 0.0 0.00 0.00 0.00 1 1008.5
20260505083055 9 194 0.0 0.0 0.00 0.00 0.00 1 1008.3
20260505081539 9 194 0.0 0.0 0.00 0.00 0.00 1 1008.2
20260505080043 9 194 0.0 0.0 0.00 0.00 0.00 1 1008.1
20260505074530 9 194 0.0 0.0 0.00 0.00 0.00 1 1008.0